Weather History for Clovis, NM

Change the Weather History Date:

Thursday, February 21, 2013

  Actual Average Record
Temperature  
Mean Temperature 36 °F -  
Max Temperature 51 °F 58 °F 78 °F (1972)
Min Temperature 19 °F 29 °F 9 °F (1953)
Degree Days  
Heating Degree Days 29    
Moisture  
Dew Point 27 °F    
Average Humidity 73    
Maximum Humidity 93    
Minimum Humidity 35    
Precipitation  
Precipitation 0.00 in - - ()
Sea Level Pressure  
Sea Level Pressure 29.70 in    
Wind  
Wind Speed 16 mph (NNE)    
Max Wind Speed 26 mph    
Max Gust Speed 32 mph    
Visibility 9 miles    
Events      
Averages and records for this station are not official NWS values.
T = Trace of Precipitation, MM = Missing Value Source: NWS Daily Summary

Daily Weather History Graph

Daily Weather History Graph

Search for Another Location

Airport:

Trip Planner

Search our weather history database for the weather conditions in past years. The results will help you decide how hot, cold, wet, or windy it might be!

Date:

Astronomy

Feb. 21, 2013 Rise Set
Actual Time 6:30 AM MST 5:41 PM MST
Civil Twilight 6:05 AM MST 6:07 PM MST
Nautical Twilight 5:35 AM MST 6:36 PM MST
Astronomical Twilight 5:06 AM MST 7:05 PM MST
Moon 2:04 PM MST (2/21) 3:30 AM MST (2/21)
Length of Visible Light 12h 01m
Length of Day
11h 11m
Waxing Gibbous, 84% of the Moon is Illuminated
Feb 21
Waxing Gibbous
Feb 25
Full
Mar 4
Last Quarter
Mar 11
New
Mar 19
First Quarter

Hourly Weather History & Observations

Time (MST) Temp. Windchill Dew Point Humidity Pressure Visibility Wind Dir Wind Speed Gust Speed Precip Events Conditions
12:15 AM 35.6 °F 24.5 °F 32.0 °F 87% 29.63 in 10.0 mi ESE 20.7 mph - N/A   Overcast
12:35 AM 33.8 °F 23.2 °F 30.2 °F 87% 29.62 in 10.0 mi East 17.3 mph - N/A   Overcast
12:55 AM 33.8 °F 23.9 °F 32.0 °F 93% 29.63 in 10.0 mi ESE 15.0 mph - N/A   Overcast
1:15 AM 33.8 °F 23.5 °F 30.2 °F 87% 29.64 in 10.0 mi SE 16.1 mph - N/A   Overcast
1:35 AM 32.0 °F 21.6 °F 30.2 °F 93% 29.62 in 9.0 mi ESE 15.0 mph 19.6 mph N/A   Overcast
1:55 AM 32.0 °F 22.1 °F 30.2 °F 93% 29.61 in 6.0 mi SE 13.8 mph - N/A   Overcast
2:15 AM 32.0 °F 22.1 °F 28.4 °F 87% 29.58 in 10.0 mi ESE 13.8 mph 21.9 mph N/A   Overcast
2:35 AM 32.0 °F 22.1 °F 28.4 °F 87% 29.57 in 7.0 mi ESE 13.8 mph 20.7 mph N/A   Overcast
2:55 AM 32.0 °F 21.2 °F 28.4 °F 87% 29.56 in 0.5 mi SE 16.1 mph - N/A   Overcast
3:15 AM 32.0 °F 19.8 °F 28.4 °F 87% 29.52 in 0.5 mi ESE 20.7 mph 25.3 mph N/A   Overcast
3:35 AM 32.0 °F 19.8 °F 28.4 °F 87% 29.53 in 0.8 mi SE 20.7 mph 24.2 mph N/A   Overcast
3:55 AM 32.0 °F 20.5 °F 28.4 °F 87% 29.56 in 0.5 mi SSE 18.4 mph - N/A   Overcast
4:15 AM 32.0 °F 19.8 °F 30.2 °F 93% 29.55 in 1.2 mi SSE 20.7 mph 26.5 mph N/A   Overcast
4:55 AM 32.0 °F 20.8 °F 28.4 °F 87% 29.56 in 10.0 mi WSW 17.3 mph 20.7 mph N/A   Overcast
5:15 AM 30.2 °F 19.3 °F 28.4 °F 93% 29.55 in 10.0 mi WSW 15.0 mph 20.7 mph N/A   Mostly Cloudy
5:35 AM 30.2 °F 22.6 °F 26.6 °F 86% 29.55 in 10.0 mi SW 8.1 mph - N/A   Partly Cloudy
5:55 AM 30.2 °F 20.2 °F 26.6 °F 86% 29.55 in 10.0 mi SW 12.7 mph - N/A   Mostly Cloudy
6:15 AM 30.2 °F 18.5 °F 24.8 °F 80% 29.55 in 10.0 mi WSW 17.3 mph - N/A   Scattered Clouds
6:35 AM 30.2 °F 18.1 °F 24.8 °F 80% 29.55 in 10.0 mi WSW 18.4 mph - N/A   Clear
6:55 AM 30.2 °F 16.8 °F 24.8 °F 80% 29.55 in 10.0 mi WSW 23.0 mph 28.8 mph N/A   Mostly Cloudy
7:15 AM 32.0 °F 19.5 °F 24.8 °F 75% 29.56 in 10.0 mi WSW 21.9 mph 29.9 mph N/A   Overcast
7:35 AM 32.0 °F 19.8 °F 24.8 °F 75% 29.56 in 10.0 mi WSW 20.7 mph 27.6 mph N/A   Partly Cloudy
7:55 AM 32.0 °F 20.1 °F 26.6 °F 80% 29.57 in 10.0 mi WSW 19.6 mph 25.3 mph N/A   Clear
8:15 AM 33.8 °F 22.2 °F 28.4 °F 81% 29.58 in 10.0 mi West 20.7 mph - N/A   Mostly Cloudy
8:35 AM 35.6 °F 24.5 °F 30.2 °F 81% 29.59 in 10.0 mi West 20.7 mph 26.5 mph N/A   Scattered Clouds
8:55 AM 35.6 °F 24.0 °F 30.2 °F 81% 29.61 in 10.0 mi WNW 23.0 mph 27.6 mph N/A   Mostly Cloudy
9:15 AM 37.4 °F 25.6 °F 32.0 °F 81% 29.62 in 10.0 mi WNW 26.5 mph 32.2 mph N/A   Overcast
9:35 AM 37.4 °F 26.1 °F 32.0 °F 81% 29.64 in 10.0 mi NW 24.2 mph - N/A   Overcast
9:55 AM 37.4 °F 26.9 °F 30.2 °F 75% 29.65 in 10.0 mi NW 20.7 mph 27.6 mph N/A   Overcast
10:15 AM 37.4 °F 27.2 °F 32.0 °F 81% 29.68 in 10.0 mi NW 19.6 mph 26.5 mph N/A   Overcast
10:35 AM 39.2 °F 30.5 °F 32.0 °F 75% 29.69 in 10.0 mi NW 16.1 mph 24.2 mph N/A   Overcast
10:55 AM 41.0 °F 32.2 °F 33.8 °F 76% 29.71 in 10.0 mi NW 18.4 mph 23.0 mph N/A   Overcast
11:15 AM 42.8 °F 34.5 °F 33.8 °F 70% 29.72 in 10.0 mi NW 18.4 mph 24.2 mph N/A   Scattered Clouds
11:35 AM 44.6 °F 36.9 °F 33.8 °F 66% 29.72 in 10.0 mi NW 18.4 mph 26.5 mph N/A   Partly Cloudy
11:55 AM 44.6 °F 36.9 °F 32.0 °F 61% 29.72 in 10.0 mi NNW 18.4 mph 24.2 mph N/A   Mostly Cloudy
12:15 PM 44.6 °F 37.8 °F 30.2 °F 57% 29.72 in 10.0 mi NW 15.0 mph 19.6 mph N/A   Scattered Clouds
12:35 PM 44.6 °F 37.4 °F 30.2 °F 57% 29.71 in 10.0 mi NNW 16.1 mph 24.2 mph N/A   Partly Cloudy
12:55 PM 46.4 °F 41.5 °F 30.2 °F 53% 29.72 in 10.0 mi NW 10.4 mph 20.7 mph N/A   Scattered Clouds
1:15 PM 46.4 °F 41.1 °F 30.2 °F 53% 29.72 in 10.0 mi NNW 11.5 mph - N/A   Overcast
1:35 PM 46.4 °F 43.5 °F 32.0 °F 57% 29.71 in 10.0 mi NNE 5.8 mph - N/A   Overcast
1:55 PM 48.2 °F - 30.2 °F 50% 29.71 in 8.0 mi NNE 6.9 mph - N/A   Overcast
2:15 PM 46.4 °F 45.2 °F 30.2 °F 53% 29.72 in 10.0 mi North 3.5 mph - N/A   Overcast
2:35 PM 46.4 °F 42.4 °F 30.2 °F 53% 29.72 in 10.0 mi ENE 8.1 mph - N/A   Overcast
2:55 PM 46.4 °F 42.9 °F 30.2 °F 53% 29.72 in 10.0 mi East 6.9 mph - N/A   Overcast
3:15 PM 46.4 °F 43.5 °F 30.2 °F 53% 29.72 in 10.0 mi NE 5.8 mph - N/A   Overcast
3:35 PM 46.4 °F 42.9 °F 28.4 °F 50% 29.72 in 10.0 mi East 6.9 mph - N/A   Mostly Cloudy
3:55 PM 48.2 °F - 32.0 °F 54% 29.72 in 10.0 mi East 11.5 mph - N/A   Mostly Cloudy
4:15 PM 51.8 °F - 30.2 °F 44% 29.72 in 10.0 mi West 10.4 mph 25.3 mph N/A   Mostly Cloudy
4:35 PM 51.8 °F - 24.8 °F 35% 29.73 in 10.0 mi West 18.4 mph 27.6 mph N/A   Partly Cloudy
4:55 PM 51.8 °F - 24.8 °F 35% 29.74 in 10.0 mi West 17.3 mph - N/A   Clear
5:15 PM 50.0 °F - 24.8 °F 37% 29.74 in 10.0 mi West 18.4 mph 25.3 mph N/A   Clear
5:35 PM 44.6 °F 37.2 °F 28.4 °F 53% 29.76 in 10.0 mi East 17.3 mph 20.7 mph N/A   Scattered Clouds
5:55 PM 39.2 °F 29.3 °F 26.6 °F 61% 29.78 in 10.0 mi NE 20.7 mph 31.1 mph N/A   Scattered Clouds
6:15 PM 35.6 °F 24.5 °F 26.6 °F 70% 29.81 in 10.0 mi NE 20.7 mph 25.3 mph N/A   Partly Cloudy
6:35 PM 32.0 °F 23.6 °F 24.8 °F 75% 29.83 in 10.0 mi NE 10.4 mph - N/A   Clear
6:55 PM 30.2 °F 19.8 °F 23.0 °F 75% 29.84 in 10.0 mi NE 13.8 mph - N/A   Clear
7:15 PM 30.2 °F 19.3 °F 21.2 °F 69% 29.85 in 10.0 mi NE 15.0 mph - N/A   Clear
7:35 PM 28.4 °F 18.0 °F 21.2 °F 74% 29.88 in 10.0 mi ENE 12.7 mph - N/A   Clear
7:55 PM 26.6 °F 16.2 °F 21.2 °F 80% 29.88 in 10.0 mi ENE 11.5 mph - N/A   Clear
8:15 PM 26.6 °F 14.3 °F 19.4 °F 74% 29.88 in 10.0 mi ENE 16.1 mph - N/A   Clear
8:35 PM 26.6 °F 15.7 °F 19.4 °F 74% 29.90 in 10.0 mi NE 12.7 mph - N/A   Clear
8:55 PM 24.8 °F 14.6 °F 19.4 °F 80% 29.91 in 10.0 mi ENE 10.4 mph - N/A   Partly Cloudy
9:15 PM 24.8 °F 14.6 °F 19.4 °F 80% 29.90 in 10.0 mi NE 10.4 mph - N/A   Clear
9:35 PM 24.8 °F 16.9 °F 19.4 °F 80% 29.93 in 10.0 mi North 6.9 mph - N/A   Clear
9:55 PM 23.0 °F 13.9 °F 19.4 °F 86% 29.91 in 10.0 mi NE 8.1 mph - N/A   Clear
10:15 PM 23.0 °F 18.4 °F 17.6 °F 80% 29.92 in 10.0 mi NE 3.5 mph - N/A   Clear
10:35 PM 21.2 °F 12.6 °F 19.4 °F 93% 29.92 in 10.0 mi NNE 6.9 mph - N/A   Clear
10:55 PM 21.2 °F 12.6 °F 17.6 °F 86% 29.92 in 10.0 mi NE 6.9 mph - N/A   Clear
11:15 PM 21.2 °F 16.4 °F 15.8 °F 80% 29.94 in 10.0 mi East 3.5 mph - N/A   Clear
11:55 PM 19.4 °F 12.8 °F 15.8 °F 86% 29.93 in 10.0 mi ENE 4.6 mph - N/A   Clear